| time (UTC) | temp F | wind direction | speed MPH | gust MPH | rain 1hr in | rain 24hr in | rain mn in | humidity % | barometer mb |
| 20260502163038 | 72 | 167 | 3.0 | 7.0 | 0.00 | 0.00 | 0.00 | 37 | 1020.3 |
| 20260502161602 | 72 | 174 | 4.0 | 7.0 | 0.00 | 0.00 | 0.00 | 37 | 1020.5 |
| 20260502151517 | 73 | 146 | 3.0 | 8.0 | 0.00 | 0.00 | 0.00 | 38 | 1020.9 |
| 20260502123030 | 71 | 282 | 1.0 | 6.0 | 0.00 | 0.00 | 0.00 | 36 | 1022.7 |
| 20260502121515 | 70 | 218 | 3.0 | 7.0 | 0.00 | 0.00 | 0.00 | 38 | 1023.0 |
| 20260502120157 | 71 | 212 | 1.0 | 5.0 | 0.00 | 0.00 | 0.00 | 39 | 1023.2 |
| 20260502114549 | 70 | 238 | 2.0 | 6.0 | 0.00 | 0.00 | 0.00 | 37 | 1023.4 |
| 20260502113017 | 69 | 306 | 1.0 | 8.0 | 0.00 | 0.00 | 0.00 | 38 | 1023.7 |
| 20260502111601 | 68 | 313 | 1.0 | 6.0 | 0.00 | 0.00 | 0.00 | 42 | 1023.9 |
| 20260502110040 | 67 | 303 | 4.0 | 8.0 | 0.00 | 0.00 | 0.00 | 41 | 1024.1 |
| 20260502104526 | 67 | 184 | 1.0 | 5.0 | 0.00 | 0.00 | 0.00 | 43 | 1024.4 |
| 20260502103005 | 66 | 319 | 1.0 | 5.0 | 0.00 | 0.00 | 0.00 | 44 | 1024.6 |
| 20260502101623 | 66 | 219 | 1.0 | 5.0 | 0.00 | 0.00 | 0.00 | 44 | 1024.8 |
| 20260502091506 | 62 | 270 | 1.0 | 4.0 | 0.00 | 0.00 | 0.00 | 51 | 1025.5 |
| 20260502090109 | 61 | 98 | 0.0 | 4.0 | 0.00 | 0.00 | 0.00 | 52 | 1025.8 |
| 20260502080108 | 57 | 189 | 2.0 | 4.0 | 0.00 | 0.00 | 0.00 | 60 | 1026.4 |
| 20260502071513 | 54 | 118 | 1.0 | 3.0 | 0.00 | 0.00 | 0.00 | 66 | 1026.9 |
| 20260502070125 | 54 | 262 | 1.0 | 3.0 | 0.00 | 0.00 | 0.00 | 67 | 1027.0 |
| 20260502064548 | 52 | 116 | 0.0 | 2.0 | 0.00 | 0.00 | 0.00 | 69 | 1027.2 |
| 20260502063028 | 51 | 105 | 1.0 | 3.0 | 0.00 | 0.00 | 0.00 | 70 | 1027.2 |
| 20260502061507 | 51 | 126 | 0.0 | 2.0 | 0.00 | 0.00 | 0.00 | 72 | 1027.3 |
| 20260502060050 | 50 | 141 | 1.0 | 2.0 | 0.00 | 0.00 | 0.00 | 70 | 1027.4 |
| 20260502054530 | 50 | 134 | 0.0 | 3.0 | 0.00 | 0.00 | 0.00 | 71 | 1027.4 |
| 20260502053006 | 50 | 96 | 0.0 | 1.0 | 0.00 | 0.00 | 0.00 | 71 | 1027.5 |
| 20260502051603 | 48 | 341 | 0.0 | 1.0 | 0.00 | 0.00 | 0.00 | 75 | 1027.4 |
| 20260502050020 | 47 | 341 | 0.0 | 0.0 | 0.00 | 0.00 | 0.00 | 76 | 1027.4 |
| 20260502044554 | 46 | 342 | 0.0 | 0.0 | 0.00 | 0.00 | 0.00 | 79 | 1027.3 |
| 20260502043032 | 44 | 341 | 0.0 | 1.0 | 0.00 | 0.00 | 0.00 | 80 | 1027.2 |
| 20260502041502 | 44 | 342 | 0.0 | 1.0 | 0.00 | 0.00 | 0.00 | 80 | 1027.2 |
| 20260502040041 | 43 | 342 | 0.0 | 1.0 | 0.00 | 0.00 | 0.00 | 81 | 1027.2 |
| 20260502034524 | 43 | 341 | 0.0 | 1.0 | 0.00 | 0.00 | 0.00 | 82 | 1027.1 |
| 20260502033058 | 43 | 338 | 0.0 | 1.0 | 0.00 | 0.00 | 0.00 | 81 | 1027.1 |
| 20260502031530 | 43 | 338 | 0.0 | 1.0 | 0.00 | 0.00 | 0.00 | 81 | 1027.1 |
| 20260502030004 | 43 | 359 | 0.0 | 1.0 | 0.00 | 0.00 | 0.00 | 81 | 1027.2 |
| 20260502024539 | 43 | 335 | 0.0 | 2.0 | 0.00 | 0.00 | 0.00 | 81 | 1027.2 |
| 20260502023010 | 44 | 318 | 0.0 | 1.0 | 0.00 | 0.00 | 0.00 | 79 | 1027.2 |
| 20260502021549 | 44 | 326 | 0.0 | 1.0 | 0.00 | 0.00 | 0.00 | 79 | 1027.2 |
| 20260502020024 | 45 | 326 | 0.0 | 0.0 | 0.00 | 0.00 | 0.00 | 76 | 1027.2 |
| 20260502014559 | 45 | 326 | 0.0 | 1.0 | 0.00 | 0.00 | 0.00 | 76 | 1027.1 |
| 20260502013053 | 45 | 326 | 0.0 | 1.0 | 0.00 | 0.00 | 0.00 | 76 | 1027.2 |
| 20260502011520 | 45 | 326 | 0.0 | 1.0 | 0.00 | 0.00 | 0.00 | 76 | 1027.1 |
| 20260502010042 | 46 | 326 | 0.0 | 0.0 | 0.00 | 0.00 | 0.00 | 74 | 1027.1 |
| 20260502004516 | 47 | 326 | 1.0 | 2.0 | 0.00 | 0.00 | 0.00 | 71 | 1027.1 |
| 20260502003056 | 47 | 319 | 0.0 | 1.0 | 0.00 | 0.00 | 0.00 | 71 | 1027.1 |
| 20260502001526 | 47 | 319 | 1.0 | 2.0 | 0.00 | 0.00 | 0.00 | 73 | 1027.2 |
| 20260502000105 | 47 | 298 | 0.0 | 2.0 | 0.00 | 0.00 | 0.00 | 73 | 1027.3 |
| 20260501234530 | 48 | 294 | 0.0 | 1.0 | 0.00 | 0.00 | 0.00 | 70 | 1027.3 |
| 20260501233104 | 47 | 294 | 0.0 | 1.0 | 0.00 | 0.00 | 0.00 | 71 | 1027.2 |
| 20260501231534 | 48 | 360 | 0.0 | 2.0 | 0.00 | 0.00 | 0.00 | 69 | 1027.2 |
| 20260501230006 | 49 | 74 | 0.0 | 1.0 | 0.00 | 0.00 | 0.00 | 67 | 1027.1 |
| 20260501224531 | 50 | 112 | 0.0 | 3.0 | 0.00 | 0.00 | 0.00 | 65 | 1027.0 |
| 20260501223102 | 51 | 359 | 1.0 | 3.0 | 0.00 | 0.00 | 0.00 | 63 | 1026.9 |
| 20260501221532 | 51 | 61 | 1.0 | 3.0 | 0.00 | 0.00 | 0.00 | 62 | 1026.9 |
| 20260501220002 | 49 | 340 | 1.0 | 3.0 | 0.00 | 0.00 | 0.00 | 62 | 1026.8 |
| 20260501214537 | 50 | 359 | 0.0 | 2.0 | 0.00 | 0.00 | 0.00 | 61 | 1026.7 |
| 20260501213103 | 50 | 331 | 0.0 | 1.0 | 0.00 | 0.00 | 0.00 | 61 | 1026.6 |
| 20260501211530 | 50 | 331 | 0.0 | 1.0 | 0.00 | 0.00 | 0.00 | 61 | 1026.4 |
| 20260501210120 | 50 | 331 | 0.0 | 1.0 | 0.00 | 0.00 | 0.00 | 59 | 1026.3 |
| 20260501204539 | 51 | 331 | 0.0 | 1.0 | 0.00 | 0.00 | 0.00 | 57 | 1026.2 |
| 20260501203006 | 52 | 331 | 0.0 | 1.0 | 0.00 | 0.00 | 0.00 | 56 | 1026.1 |
| 20260501201540 | 52 | 331 | 0.0 | 1.0 | 0.00 | 0.00 | 0.00 | 57 | 1025.9 |
| 20260501200104 | 53 | 331 | 0.0 | 1.0 | 0.00 | 0.00 | 0.00 | 53 | 1025.7 |
| 20260501194537 | 53 | 331 | 0.0 | 1.0 | 0.00 | 0.00 | 0.00 | 54 | 1025.6 |
| 20260501193004 | 54 | 331 | 0.0 | 1.0 | 0.00 | 0.00 | 0.00 | 51 | 1025.4 |
| 20260501191536 | 55 | 331 | 1.0 | 2.0 | 0.00 | 0.00 | 0.00 | 48 | 1025.3 |
| 20260501190009 | 56 | 283 | 0.0 | 1.0 | 0.00 | 0.00 | 0.00 | 50 | 1025.1 |
| 20260501184536 | 57 | 286 | 1.0 | 3.0 | 0.00 | 0.00 | 0.00 | 45 | 1024.8 |
| 20260501183025 | 57 | 283 | 1.0 | 2.0 | 0.00 | 0.00 | 0.00 | 47 | 1024.7 |
| 20260501181607 | 59 | 299 | 1.0 | 3.0 | 0.00 | 0.00 | 0.00 | 44 | 1024.5 |
| 20260501180026 | 60 | 285 | 0.0 | 2.0 | 0.00 | 0.00 | 0.00 | 42 | 1024.3 |
| 20260501174559 | 61 | 285 | 1.0 | 3.0 | 0.00 | 0.00 | 0.00 | 40 | 1024.1 |
| 20260501173028 | 63 | 290 | 2.0 | 6.0 | 0.00 | 0.00 | 0.00 | 37 | 1023.9 |
| 20260501171554 | 64 | 246 | 2.0 | 5.0 | 0.00 | 0.00 | 0.00 | 37 | 1023.8 |
| 20260501170025 | 65 | 265 | 3.0 | 5.0 | 0.00 | 0.00 | 0.00 | 35 | 1023.7 |
| 20260501164554 | 65 | 151 | 2.0 | 8.0 | 0.00 | 0.00 | 0.00 | 35 | 1023.9 |